Weather History for Pittsburgh, PA

Change the Weather History Date:

Thursday, November 1, 2012

  Actual Average Record
Temperature  
Mean Temperature 40 °F 48 °F  
Max Temperature 42 °F 57 °F 80 °F (1950)
Min Temperature 37 °F 39 °F 26 °F (1954)
Degree Days  
Heating Degree Days 25 17  
Month to date heating degree days 25 17  
Since 1 July heating degree days 518 518  
Cooling Degree Days 0 0  
Month to date cooling degree days 0 0  
Year to date cooling degree days 1025 736  
Moisture  
Dew Point 36 °F    
Average Humidity 87    
Maximum Humidity 92    
Minimum Humidity 82    
Precipitation  
Precipitation 0.12 in 0.10 in 1.13 in (1897)
Month to date precipitation 0.12 0.10  
Year to date precipitation 35.95 32.21  
Snow  
Snow T in 0.00 in 1.70 in (1993)
Month to date snowfall T 0.0  
Since 1 July snowfall T 0.4  
Snow Depth 0.00 in    
Sea Level Pressure  
Sea Level Pressure 29.73 in    
Wind  
Wind Speed 9 mph (WSW)    
Max Wind Speed 20 mph    
Max Gust Speed 25 mph    
Visibility 8 miles    
Events Rain , Snow    
T = Trace of Precipitation, MM = Missing Value Source: NWS Daily Summary

Daily Weather History Graph

Daily Weather History Graph

Search for Another Location

Airport:

Trip Planner

Search our weather history database for the weather conditions in past years. The results will help you decide how hot, cold, wet, or windy it might be!

Date:

Astronomy

Nov. 01, 2012 Rise Set
Actual Time 7:51 AM EDT 6:16 PM EDT
Civil Twilight 7:22 AM EDT 6:45 PM EDT
Nautical Twilight 6:50 AM EDT 7:17 PM EDT
Astronomical Twilight 6:18 AM EDT 7:49 PM EDT
Moon 8:12 PM EDT (11/1) 10:22 AM EDT (11/1)
Length of Visible Light 11h 22m
Length of Day
10h 25m
Waning Gibbous, 93% of the Moon is Illuminated
Nov 1
Waning Gibbous
Nov 6
Last Quarter
Nov 13
New
Nov 20
First Quarter
Nov 28
Full

Hourly Weather History & Observations

Time (EDT) Temp. Windchill Dew Point Humidity Pressure Visibility Wind Dir Wind Speed Gust Speed Precip Events Conditions
12:51 AM 39.0 °F 32.3 °F 37.0 °F 93% 29.68 in 7.0 mi WSW 10.4 mph - 0.01 in Rain Light Rain
1:51 AM 39.0 °F 32.3 °F 37.0 °F 93% 29.68 in 10.0 mi WSW 10.4 mph 16.1 mph 0.01 in Rain Light Rain
2:51 AM 39.0 °F 34.0 °F 37.0 °F 93% 29.68 in 10.0 mi WSW 6.9 mph - 0.02 in Rain Light Rain
3:51 AM 39.0 °F 32.8 °F 36.0 °F 89% 29.68 in 10.0 mi West 9.2 mph 17.3 mph 0.00 in Rain Light Rain
4:51 AM 39.0 °F 32.8 °F 36.0 °F 89% 29.68 in 10.0 mi West 9.2 mph - 0.02 in Rain Light Rain
5:51 AM 39.0 °F 33.4 °F 36.0 °F 89% 29.69 in 9.0 mi WSW 8.1 mph - 0.01 in Rain Light Rain
6:45 AM 39.2 °F 33.0 °F 35.6 °F 87% 29.65 in 6.0 mi WSW 9.2 mph - 0.02 in Rain Light Rain
6:51 AM 39.0 °F 32.8 °F 36.0 °F 89% 29.70 in 7.0 mi WSW 9.2 mph - 0.02 in Rain Light Rain
7:45 AM 39.2 °F 32.5 °F 35.6 °F 87% 29.66 in 6.0 mi WSW 10.4 mph - 0.01 in Rain Light Rain
7:51 AM 39.0 °F 33.4 °F 36.0 °F 89% 29.70 in 6.0 mi WSW 8.1 mph - 0.01 in Rain Light Rain
8:51 AM 39.0 °F 32.8 °F 36.0 °F 89% 29.72 in 3.0 mi WSW 9.2 mph - 0.00 in   Light Drizzle
9:30 AM 39.2 °F 33.6 °F 37.4 °F 93% 29.69 in 5.0 mi WSW 8.1 mph - 0.00 in Rain Light Rain
9:51 AM 39.0 °F 32.8 °F 37.0 °F 93% 29.74 in 6.0 mi WSW 9.2 mph 16.1 mph 0.01 in Rain Light Rain
10:51 AM 39.9 °F 33.4 °F 37.0 °F 89% 29.75 in 4.0 mi WSW 10.4 mph 18.4 mph 0.00 in Rain Light Rain
11:51 AM 41.0 °F 36.4 °F 37.9 °F 89% 29.74 in 7.0 mi West 6.9 mph 18.4 mph 0.01 in Rain Light Rain
12:40 PM 41.0 °F 33.9 °F 37.4 °F 87% 29.70 in 10.0 mi WSW 12.7 mph 18.4 mph 0.00 in   Light Drizzle
12:51 PM 42.1 °F 36.1 °F 37.9 °F 85% 29.74 in 10.0 mi West 10.4 mph 19.6 mph 0.00 in   Light Drizzle
1:51 PM 41.0 °F 33.9 °F 37.0 °F 86% 29.73 in 4.0 mi West 12.7 mph 20.7 mph 0.00 in Rain Light Rain
2:51 PM 41.0 °F 34.3 °F 37.0 °F 86% 29.72 in 10.0 mi West 11.5 mph 21.9 mph 0.01 in Rain Light Rain
3:51 PM 39.9 °F 33.9 °F 37.0 °F 89% 29.73 in 10.0 mi West 9.2 mph - 0.00 in   Overcast
4:23 PM 39.2 °F 33.0 °F 37.4 °F 93% 29.69 in 6.0 mi West 9.2 mph - 0.00 in   Light Drizzle
4:51 PM 39.9 °F 32.9 °F 37.0 °F 89% 29.74 in 9.0 mi West 11.5 mph - 0.00 in   Light Drizzle
5:22 PM 39.2 °F 33.0 °F 35.6 °F 87% 29.71 in 6.0 mi West 9.2 mph 18.4 mph 0.00 in   Light Drizzle
5:51 PM 39.0 °F 30.3 °F 35.1 °F 86% 29.76 in 10.0 mi West 16.1 mph 24.2 mph 0.00 in   Overcast
6:14 PM 39.2 °F 30.5 °F 35.6 °F 87% 29.73 in 10.0 mi WNW 16.1 mph - N/A   Overcast
6:51 PM 39.0 °F 31.8 °F 35.1 °F 86% 29.78 in 10.0 mi West 11.5 mph - 0.00 in Rain Light Rain
7:43 PM 37.4 °F 30.3 °F 33.8 °F 87% 29.76 in 10.0 mi West 10.4 mph - 0.00 in   Overcast
7:51 PM 37.9 °F 31.5 °F 34.0 °F 86% 29.80 in 10.0 mi West 9.2 mph 18.4 mph 0.00 in   Overcast
8:29 PM 37.4 °F 32.8 °F 33.8 °F 87% 29.76 in 10.0 mi West 5.8 mph - N/A   Overcast
8:51 PM 37.9 °F 34.4 °F 34.0 °F 86% 29.81 in 10.0 mi WSW 4.6 mph - N/A   Overcast
9:42 PM 37.4 °F - 33.8 °F 87% 29.75 in 10.0 mi Calm Calm - N/A   Overcast
9:51 PM 37.9 °F - 34.0 °F 86% 29.80 in 10.0 mi Calm Calm - N/A   Mostly Cloudy
10:51 PM 37.9 °F 34.4 °F 33.1 °F 83% 29.79 in 10.0 mi SW 4.6 mph - N/A   Overcast
11:51 PM 37.4 °F 32.8 °F 32.0 °F 81% 29.74 in 10.0 mi SW 5.8 mph - N/A   Overcast